owner,sensor,date,latitude,longitude,vertical_datum,wind_speed,wind_to_direction,wind_speed_of_gust,qcFlag 
LOOP,urn:ioos:station:wmo:lopl1:1,2013-11-01T00:06:00Z,28.8850,-90.0250,10.0,8.5,205.0,12.1,'11111222,11111222,11111222' 
LOOP,urn:ioos:station:wmo:lopl1:1,2013-11-01T00:21:00Z,28.8850,-90.0250,10.0,10.2,213.0,12.8,'11111222,11111222,11111222' 
LOOP,urn:ioos:station:wmo:lopl1:1,2013-11-01T00:36:00Z,28.8850,-90.0250,10.0,11.9,210.0,13.8,'11111222,11111222,11111222' 
LOOP,urn:ioos:station:wmo:lopl1:1,2013-11-01T00:51:00Z,28.8850,-90.0250,10.0,10.9,215.0,14.0,'11111222,11111222,11111222' 
LOOP,urn:ioos:station:wmo:lopl1:1,2013-11-01T01:06:00Z,28.8850,-90.0250,10.0,11.4,212.0,13.1,'11111222,11111222,11111222' 
LOOP,urn:ioos:station:wmo:lopl1:1,2013-11-01T01:21:00Z,28.8850,-90.0250,10.0,10.5,213.0,12.1,'11111222,11111222,11111222' 
LOOP,urn:ioos:station:wmo:lopl1:1,2013-11-01T01:36:00Z,28.8850,-90.0250,10.0,9.4,214.0,10.7,'11111222,11111222,11111222' 
LOOP,urn:ioos:station:wmo:lopl1:1,2013-11-01T01:51:00Z,28.8850,-90.0250,10.0,9.0,216.0,11.1,'11111222,11111222,11111222' 
LOOP,urn:ioos:station:wmo:lopl1:1,2013-11-01T02:06:00Z,28.8850,-90.0250,10.0,8.7,212.0,12.5,'11111222,11111222,11111222' 
LOOP,urn:ioos:station:wmo:lopl1:1,2013-11-01T02:21:00Z,28.8850,-90.0250,10.0,7.6,208.0,10.2,'11111222,11111222,11111222' 
LOOP,urn:ioos:station:wmo:lopl1:1,2013-11-01T02:36:00Z,28.8850,-90.0250,10.0,7.8,209.0,10.4,'11111222,11111222,11111222' 
LOOP,urn:ioos:station:wmo:lopl1:1,2013-11-01T02:51:00Z,28.8850,-90.0250,10.0,9.6,215.0,11.0,'11111222,11111222,11111222' 
LOOP,urn:ioos:station:wmo:lopl1:1,2013-11-01T03:06:00Z,28.8850,-90.0250,10.0,8.4,218.0,9.5,'11111222,11111222,11111222' 
LOOP,urn:ioos:station:wmo:lopl1:1,2013-11-01T03:21:00Z,28.8850,-90.0250,10.0,9.9,220.0,11.0,'11111222,11111222,11111222' 
LOOP,urn:ioos:station:wmo:lopl1:1,2013-11-01T03:41:00Z,28.8850,-90.0250,10.0,7.9,228.0,9.5,'11111222,11111222,11111222' 
LOOP,urn:ioos:station:wmo:lopl1:1,2013-11-01T03:56:00Z,28.8850,-90.0250,10.0,8.4,227.0,9.8,'11111222,11111222,11111222' 
LOOP,urn:ioos:station:wmo:lopl1:1,2013-11-01T04:11:00Z,28.8850,-90.0250,10.0,7.5,217.0,8.8,'11111222,11111222,11111222' 
LOOP,urn:ioos:station:wmo:lopl1:1,2013-11-01T04:26:00Z,28.8850,-90.0250,10.0,7.2,214.0,9.2,'11111222,11111222,11111222' 
LOOP,urn:ioos:station:wmo:lopl1:1,2013-11-01T04:41:00Z,28.8850,-90.0250,10.0,8.1,197.0,11.1,'11111222,11111222,11111222' 
LOOP,urn:ioos:station:wmo:lopl1:1,2013-11-01T04:56:00Z,28.8850,-90.0250,10.0,8.3,190.0,13.9,'11111222,11111222,11111222' 
LOOP,urn:ioos:station:wmo:lopl1:1,2013-11-01T05:11:00Z,28.8850,-90.0250,10.0,7.7,180.0,11.0,'11111222,11111222,11111222' 
LOOP,urn:ioos:station:wmo:lopl1:1,2013-11-01T05:26:00Z,28.8850,-90.0250,10.0,8.0,181.0,11.6,'11111222,11111222,11111222' 
LOOP,urn:ioos:station:wmo:lopl1:1,2013-11-01T05:41:00Z,28.8850,-90.0250,10.0,8.3,199.0,10.9,'11111222,11111222,11111222' 
LOOP,urn:ioos:station:wmo:lopl1:1,2013-11-01T05:56:00Z,28.8850,-90.0250,10.0,10.0,193.0,12.8,'11111222,11111222,11111222' 
LOOP,urn:ioos:station:wmo:lopl1:1,2013-11-01T06:11:00Z,28.8850,-90.0250,10.0,9.5,195.0,12.5,'11111222,11111222,11111222' 
LOOP,urn:ioos:station:wmo:lopl1:1,2013-11-01T06:26:00Z,28.8850,-90.0250,10.0,11.4,212.0,14.7,'11111222,11111222,11111222' 
LOOP,urn:ioos:station:wmo:lopl1:1,2013-11-01T06:41:00Z,28.8850,-90.0250,10.0,12.4,212.0,14.5,'11111222,11111222,11111222' 
LOOP,urn:ioos:station:wmo:lopl1:1,2013-11-01T06:56:00Z,28.8850,-90.0250,10.0,12.3,212.0,14.7,'11111222,11111222,11111222' 
LOOP,urn:ioos:station:wmo:lopl1:1,2013-11-01T07:11:00Z,28.8850,-90.0250,10.0,10.8,212.0,12.9,'11111222,11111222,11111222' 
LOOP,urn:ioos:station:wmo:lopl1:1,2013-11-01T07:26:00Z,28.8850,-90.0250,10.0,9.6,214.0,11.1,'11111222,11111222,11111222' 
LOOP,urn:ioos:station:wmo:lopl1:1,2013-11-01T07:41:00Z,28.8850,-90.0250,10.0,11.4,214.0,12.6,'11111222,11111222,11111222' 
LOOP,urn:ioos:station:wmo:lopl1:1,2013-11-01T07:56:00Z,28.8850,-90.0250,10.0,11.9,220.0,13.1,'11111222,11111222,11111222' 
LOOP,urn:ioos:station:wmo:lopl1:1,2013-11-01T08:11:00Z,28.8850,-90.0250,10.0,12.6,215.0,13.7,'11111222,11111222,11111222' 
LOOP,urn:ioos:station:wmo:lopl1:1,2013-11-01T08:26:00Z,28.8850,-90.0250,10.0,12.6,223.0,16.2,'11111222,11111222,11111222' 
LOOP,urn:ioos:station:wmo:lopl1:1,2013-11-01T08:41:00Z,28.8850,-90.0250,10.0,11.5,232.0,14.5,'11111222,11111222,11111222' 
LOOP,urn:ioos:station:wmo:lopl1:1,2013-11-01T08:56:00Z,28.8850,-90.0250,10.0,9.3,235.0,13.1,'11111222,11111222,11111222' 
LOOP,urn:ioos:station:wmo:lopl1:1,2013-11-01T09:11:00Z,28.8850,-90.0250,10.0,5.2,269.0,9.9,'11111222,11111222,11111222' 
LOOP,urn:ioos:station:wmo:lopl1:1,2013-11-01T09:26:00Z,28.8850,-90.0250,10.0,5.2,242.0,9.3,'11111222,11111222,11111222' 
LOOP,urn:ioos:station:wmo:lopl1:1,2013-11-01T09:41:00Z,28.8850,-90.0250,10.0,7.3,224.0,11.2,'11111222,11111222,11111222' 
LOOP,urn:ioos:station:wmo:lopl1:1,2013-11-01T09:56:00Z,28.8850,-90.0250,10.0,4.4,241.0,9.3,'11111222,11111222,11111222' 
LOOP,urn:ioos:station:wmo:lopl1:1,2013-11-01T10:11:00Z,28.8850,-90.0250,10.0,4.3,274.0,6.9,'11111222,11111222,11111222' 
LOOP,urn:ioos:station:wmo:lopl1:1,2013-11-01T10:26:00Z,28.8850,-90.0250,10.0,4.8,270.0,8.7,'11111222,11111222,11111222' 
LOOP,urn:ioos:station:wmo:lopl1:1,2013-11-01T10:41:00Z,28.8850,-90.0250,10.0,8.7,316.0,13.2,'11111222,11111222,11111222' 
LOOP,urn:ioos:station:wmo:lopl1:1,2013-11-01T10:56:00Z,28.8850,-90.0250,10.0,10.1,334.0,13.4,'11111222,11111222,11111222' 
LOOP,urn:ioos:station:wmo:lopl1:1,2013-11-01T11:11:00Z,28.8850,-90.0250,10.0,10.2,335.0,13.9,'11111222,11111222,11111222' 
LOOP,urn:ioos:station:wmo:lopl1:1,2013-11-01T11:26:00Z,28.8850,-90.0250,10.0,7.5,340.0,11.6,'11111222,11111222,11111222' 
LOOP,urn:ioos:station:wmo:lopl1:1,2013-11-01T11:41:00Z,28.8850,-90.0250,10.0,7.8,329.0,11.6,'11111222,11111222,11111222' 
LOOP,urn:ioos:station:wmo:lopl1:1,2013-11-01T11:56:00Z,28.8850,-90.0250,10.0,5.7,339.0,9.3,'11111222,11111222,11111222' 
LOOP,urn:ioos:station:wmo:lopl1:1,2013-11-01T12:11:00Z,28.8850,-90.0250,10.0,4.8,341.0,7.7,'11111222,11111222,11111222' 
LOOP,urn:ioos:station:wmo:lopl1:1,2013-11-01T12:26:00Z,28.8850,-90.0250,10.0,5.1,342.0,8.9,'11111222,11111222,11111222' 
LOOP,urn:ioos:station:wmo:lopl1:1,2013-11-01T12:41:00Z,28.8850,-90.0250,10.0,5.3,340.0,8.6,'11111222,11111222,11111222' 
LOOP,urn:ioos:station:wmo:lopl1:1,2013-11-01T12:56:00Z,28.8850,-90.0250,10.0,4.8,1.0,5.2,'11111222,11111222,11111222' 
LOOP,urn:ioos:station:wmo:lopl1:1,2013-11-01T13:11:00Z,28.8850,-90.0250,10.0,4.9,1.0,7.3,'11111222,11111222,11111222' 
LOOP,urn:ioos:station:wmo:lopl1:1,2013-11-01T13:26:00Z,28.8850,-90.0250,10.0,4.6,347.0,6.7,'11111222,11111222,11111222' 
LOOP,urn:ioos:station:wmo:lopl1:1,2013-11-01T13:46:00Z,28.8850,-90.0250,10.0,4.4,356.0,7.3,'11111222,11111222,11111222' 
LOOP,urn:ioos:station:wmo:lopl1:1,2013-11-01T14:01:00Z,28.8850,-90.0250,10.0,4.3,346.0,6.5,'11111222,11111222,11111222' 
LOOP,urn:ioos:station:wmo:lopl1:1,2013-11-01T14:16:00Z,28.8850,-90.0250,10.0,6.2,3.0,7.8,'11111222,11111222,11111222' 
LOOP,urn:ioos:station:wmo:lopl1:1,2013-11-01T14:31:00Z,28.8850,-90.0250,10.0,6.1,3.0,7.8,'11111222,11111222,11111222' 
LOOP,urn:ioos:station:wmo:lopl1:1,2013-11-01T14:46:00Z,28.8850,-90.0250,10.0,6.1,0.0,8.6,'11111222,11111222,11111222' 
LOOP,urn:ioos:station:wmo:lopl1:1,2013-11-01T15:01:00Z,28.8850,-90.0250,10.0,6.5,6.0,8.4,'11111222,11111222,11111222' 
LOOP,urn:ioos:station:wmo:lopl1:1,2013-11-01T15:16:00Z,28.8850,-90.0250,10.0,6.8,8.0,8.7,'11111222,11111222,11111222' 
LOOP,urn:ioos:station:wmo:lopl1:1,2013-11-01T15:31:00Z,28.8850,-90.0250,10.0,5.1,9.0,7.3,'11111222,11111222,11111222' 
LOOP,urn:ioos:station:wmo:lopl1:1,2013-11-01T15:46:00Z,28.8850,-90.0250,10.0,4.3,357.0,6.5,'11111222,11111222,11111222' 
LOOP,urn:ioos:station:wmo:lopl1:1,2013-11-01T16:01:00Z,28.8850,-90.0250,10.0,4.2,359.0,6.4,'11111222,11111222,11111222' 
LOOP,urn:ioos:station:wmo:lopl1:1,2013-11-01T16:16:00Z,28.8850,-90.0250,10.0,4.6,9.0,7.0,'11111222,11111222,11111222' 
LOOP,urn:ioos:station:wmo:lopl1:1,2013-11-01T16:31:00Z,28.8850,-90.0250,10.0,5.1,10.0,6.1,'11111222,11111222,11111222' 
LOOP,urn:ioos:station:wmo:lopl1:1,2013-11-01T16:46:00Z,28.8850,-90.0250,10.0,4.4,8.0,5.8,'11111222,11111222,11111222' 
LOOP,urn:ioos:station:wmo:lopl1:1,2013-11-01T17:01:00Z,28.8850,-90.0250,10.0,3.8,15.0,5.2,'11111222,11111222,11111222' 
LOOP,urn:ioos:station:wmo:lopl1:1,2013-11-01T17:16:00Z,28.8850,-90.0250,10.0,3.8,4.0,4.9,'11111222,11111222,11111222' 
LOOP,urn:ioos:station:wmo:lopl1:1,2013-11-01T17:31:00Z,28.8850,-90.0250,10.0,3.9,348.0,5.3,'11111222,11111222,11111222' 
LOOP,urn:ioos:station:wmo:lopl1:1,2013-11-01T17:46:00Z,28.8850,-90.0250,10.0,2.2,339.0,3.5,'11111222,11111222,11111222' 
LOOP,urn:ioos:station:wmo:lopl1:1,2013-11-01T18:01:00Z,28.8850,-90.0250,10.0,3.2,358.0,4.9,'11111222,11111222,11111222' 
LOOP,urn:ioos:station:wmo:lopl1:1,2013-11-01T18:16:00Z,28.8850,-90.0250,10.0,3.6,12.0,5.1,'11111222,11111222,11111222' 
LOOP,urn:ioos:station:wmo:lopl1:1,2013-11-01T18:31:00Z,28.8850,-90.0250,10.0,3.3,5.0,4.5,'11111222,11111222,11111222' 
LOOP,urn:ioos:station:wmo:lopl1:1,2013-11-01T18:51:00Z,28.8850,-90.0250,10.0,2.5,2.0,4.9,'11111222,11111222,11111222' 
LOOP,urn:ioos:station:wmo:lopl1:1,2013-11-01T19:06:00Z,28.8850,-90.0250,10.0,2.4,350.0,4.2,'11111222,11111222,11111222' 
LOOP,urn:ioos:station:wmo:lopl1:1,2013-11-01T19:21:00Z,28.8850,-90.0250,10.0,2.9,1.0,4.6,'11111222,11111222,11111222' 
LOOP,urn:ioos:station:wmo:lopl1:1,2013-11-01T19:36:00Z,28.8850,-90.0250,10.0,2.7,340.0,4.7,'11111222,11111222,11111222' 
LOOP,urn:ioos:station:wmo:lopl1:1,2013-11-01T19:51:00Z,28.8850,-90.0250,10.0,2.7,345.0,4.7,'11111222,11111222,11111222' 
LOOP,urn:ioos:station:wmo:lopl1:1,2013-11-01T20:06:00Z,28.8850,-90.0250,10.0,2.4,335.0,3.9,'11111222,11111222,11111222' 
LOOP,urn:ioos:station:wmo:lopl1:1,2013-11-01T20:21:00Z,28.8850,-90.0250,10.0,2.7,340.0,4.2,'11111222,11111222,11111222' 
LOOP,urn:ioos:station:wmo:lopl1:1,2013-11-01T20:36:00Z,28.8850,-90.0250,10.0,1.8,4.0,3.7,'11111222,11111222,11111222' 
LOOP,urn:ioos:station:wmo:lopl1:1,2013-11-01T20:51:00Z,28.8850,-90.0250,10.0,1.3,300.0,2.4,'11111222,11111222,11111222' 
LOOP,urn:ioos:station:wmo:lopl1:1,2013-11-01T21:06:00Z,28.8850,-90.0250,10.0,2.0,280.0,2.9,'11111222,11111222,11111222' 
LOOP,urn:ioos:station:wmo:lopl1:1,2013-11-01T21:21:00Z,28.8850,-90.0250,10.0,2.6,295.0,3.8,'11111222,11111222,11111222' 
LOOP,urn:ioos:station:wmo:lopl1:1,2013-11-01T21:36:00Z,28.8850,-90.0250,10.0,2.4,284.0,3.6,'11111222,11111222,11111222' 
LOOP,urn:ioos:station:wmo:lopl1:1,2013-11-01T21:51:00Z,28.8850,-90.0250,10.0,2.4,299.0,3.6,'11111222,11111222,11111222' 
LOOP,urn:ioos:station:wmo:lopl1:1,2013-11-01T22:06:00Z,28.8850,-90.0250,10.0,2.6,301.0,4.5,'11111222,11111222,11111222' 
LOOP,urn:ioos:station:wmo:lopl1:1,2013-11-01T22:21:00Z,28.8850,-90.0250,10.0,2.9,296.0,4.6,'11111222,11111222,11111222' 
LOOP,urn:ioos:station:wmo:lopl1:1,2013-11-01T22:36:00Z,28.8850,-90.0250,10.0,3.6,290.0,5.4,'11111222,11111222,11111222' 
LOOP,urn:ioos:station:wmo:lopl1:1,2013-11-01T22:51:00Z,28.8850,-90.0250,10.0,3.6,280.0,4.8,'11111222,11111222,11111222' 
LOOP,urn:ioos:station:wmo:lopl1:1,2013-11-01T23:06:00Z,28.8850,-90.0250,10.0,3.6,299.0,5.2,'11111222,11111222,11111222' 
LOOP,urn:ioos:station:wmo:lopl1:1,2013-11-01T23:21:00Z,28.8850,-90.0250,10.0,3.3,273.0,5.1,'11111222,11111222,11111222' 
LOOP,urn:ioos:station:wmo:lopl1:1,2013-11-01T23:36:00Z,28.8850,-90.0250,10.0,2.9,275.0,4.5,'11111222,11111222,11111222' 
LOOP,urn:ioos:station:wmo:lopl1:1,2013-11-01T23:51:00Z,28.8850,-90.0250,10.0,2.8,286.0,4.7,'11111222,11111222,11111222' 
LOOP,urn:ioos:station:wmo:lopl1:1,2013-11-02T00:06:00Z,28.8850,-90.0250,10.0,3.9,283.0,5.3,'11111222,11111222,11111222' 
LOOP,urn:ioos:station:wmo:lopl1:1,2013-11-02T00:21:00Z,28.8850,-90.0250,10.0,3.2,288.0,4.7,'11111222,11111222,11111222' 
LOOP,urn:ioos:station:wmo:lopl1:1,2013-11-02T00:36:00Z,28.8850,-90.0250,10.0,2.8,264.0,4.9,'11111222,11111222,11111222' 
LOOP,urn:ioos:station:wmo:lopl1:1,2013-11-02T00:51:00Z,28.8850,-90.0250,10.0,3.2,273.0,4.6,'11111222,11111222,11111222' 
LOOP,urn:ioos:station:wmo:lopl1:1,2013-11-02T01:06:00Z,28.8850,-90.0250,10.0,3.2,299.0,4.5,'11111222,11111222,11111222' 
LOOP,urn:ioos:station:wmo:lopl1:1,2013-11-02T01:21:00Z,28.8850,-90.0250,10.0,3.0,298.0,4.7,'11111222,11111222,11111222' 
LOOP,urn:ioos:station:wmo:lopl1:1,2013-11-02T01:36:00Z,28.8850,-90.0250,10.0,3.6,288.0,4.8,'11111222,11111222,11111222' 
LOOP,urn:ioos:station:wmo:lopl1:1,2013-11-02T01:51:00Z,28.8850,-90.0250,10.0,4.0,296.0,5.4,'11111222,11111222,11111222' 
LOOP,urn:ioos:station:wmo:lopl1:1,2013-11-02T02:06:00Z,28.8850,-90.0250,10.0,4.1,326.0,6.3,'11111222,11111222,11111222' 
LOOP,urn:ioos:station:wmo:lopl1:1,2013-11-02T02:21:00Z,28.8850,-90.0250,10.0,4.8,343.0,6.7,'11111222,11111222,11111222' 
LOOP,urn:ioos:station:wmo:lopl1:1,2013-11-02T02:36:00Z,28.8850,-90.0250,10.0,3.4,5.0,5.2,'11111222,11111222,11111222' 
LOOP,urn:ioos:station:wmo:lopl1:1,2013-11-02T02:51:00Z,28.8850,-90.0250,10.0,3.7,337.0,5.9,'11111222,11111222,11111222' 
LOOP,urn:ioos:station:wmo:lopl1:1,2013-11-02T03:06:00Z,28.8850,-90.0250,10.0,4.0,342.0,6.0,'11111222,11111222,11111222' 
LOOP,urn:ioos:station:wmo:lopl1:1,2013-11-02T03:21:00Z,28.8850,-90.0250,10.0,4.1,350.0,6.4,'11111222,11111222,11111222' 
LOOP,urn:ioos:station:wmo:lopl1:1,2013-11-02T03:36:00Z,28.8850,-90.0250,10.0,4.1,334.0,6.1,'11111222,11111222,11111222' 
LOOP,urn:ioos:station:wmo:lopl1:1,2013-11-02T03:56:00Z,28.8850,-90.0250,10.0,3.6,345.0,5.7,'11111222,11111222,11111222' 
LOOP,urn:ioos:station:wmo:lopl1:1,2013-11-02T04:11:00Z,28.8850,-90.0250,10.0,3.4,336.0,4.8,'11111222,11111222,11111222' 
LOOP,urn:ioos:station:wmo:lopl1:1,2013-11-02T04:26:00Z,28.8850,-90.0250,10.0,3.6,351.0,5.2,'11111222,11111222,11111222' 
LOOP,urn:ioos:station:wmo:lopl1:1,2013-11-02T04:41:00Z,28.8850,-90.0250,10.0,3.8,0.0,5.8,'11111222,11111222,11111222' 
LOOP,urn:ioos:station:wmo:lopl1:1,2013-11-02T04:56:00Z,28.8850,-90.0250,10.0,4.0,351.0,5.3,'11111222,11111222,11111222' 
LOOP,urn:ioos:station:wmo:lopl1:1,2013-11-02T05:11:00Z,28.8850,-90.0250,10.0,3.5,341.0,5.3,'11111222,11111222,11111222' 
LOOP,urn:ioos:station:wmo:lopl1:1,2013-11-02T05:26:00Z,28.8850,-90.0250,10.0,3.4,359.0,5.1,'11111222,11111222,11111222' 
LOOP,urn:ioos:station:wmo:lopl1:1,2013-11-02T05:41:00Z,28.8850,-90.0250,10.0,3.6,0.0,5.2,'11111222,11111222,11111222' 
LOOP,urn:ioos:station:wmo:lopl1:1,2013-11-02T05:56:00Z,28.8850,-90.0250,10.0,4.4,6.0,6.6,'11111222,11111222,11111222' 
LOOP,urn:ioos:station:wmo:lopl1:1,2013-11-02T06:11:00Z,28.8850,-90.0250,10.0,4.1,5.0,6.5,'11111222,11111222,11111222' 
LOOP,urn:ioos:station:wmo:lopl1:1,2013-11-02T06:26:00Z,28.8850,-90.0250,10.0,5.3,7.0,7.0,'11111222,11111222,11111222' 
LOOP,urn:ioos:station:wmo:lopl1:1,2013-11-02T06:41:00Z,28.8850,-90.0250,10.0,5.5,8.0,7.1,'11111222,11111222,11111222' 
LOOP,urn:ioos:station:wmo:lopl1:1,2013-11-02T06:56:00Z,28.8850,-90.0250,10.0,5.5,7.0,6.8,'11111222,11111222,11111222' 
LOOP,urn:ioos:station:wmo:lopl1:1,2013-11-02T07:11:00Z,28.8850,-90.0250,10.0,5.8,7.0,7.5,'11111222,11111222,11111222' 
LOOP,urn:ioos:station:wmo:lopl1:1,2013-11-02T07:26:00Z,28.8850,-90.0250,10.0,5.8,9.0,7.0,'11111222,11111222,11111222' 
LOOP,urn:ioos:station:wmo:lopl1:1,2013-11-02T07:41:00Z,28.8850,-90.0250,10.0,6.4,19.0,7.9,'11111222,11111222,11111222' 
LOOP,urn:ioos:station:wmo:lopl1:1,2013-11-02T07:56:00Z,28.8850,-90.0250,10.0,6.8,11.0,8.6,'11111222,11111222,11111222' 
LOOP,urn:ioos:station:wmo:lopl1:1,2013-11-02T08:16:00Z,28.8850,-90.0250,10.0,6.4,10.0,8.0,'11111222,11111222,11111222' 
LOOP,urn:ioos:station:wmo:lopl1:1,2013-11-02T08:31:00Z,28.8850,-90.0250,10.0,6.9,8.0,8.6,'11111222,11111222,11111222' 
LOOP,urn:ioos:station:wmo:lopl1:1,2013-11-02T08:46:00Z,28.8850,-90.0250,10.0,6.7,5.0,9.2,'11111222,11111222,11111222' 
LOOP,urn:ioos:station:wmo:lopl1:1,2013-11-02T09:01:00Z,28.8850,-90.0250,10.0,6.0,12.0,7.5,'11111222,11111222,11111222' 
LOOP,urn:ioos:station:wmo:lopl1:1,2013-11-02T09:16:00Z,28.8850,-90.0250,10.0,6.8,8.0,8.4,'11111222,11111222,11111222' 
LOOP,urn:ioos:station:wmo:lopl1:1,2013-11-02T09:31:00Z,28.8850,-90.0250,10.0,6.3,4.0,8.4,'11111222,11111222,11111222' 
LOOP,urn:ioos:station:wmo:lopl1:1,2013-11-02T09:46:00Z,28.8850,-90.0250,10.0,6.6,4.0,8.0,'11111222,11111222,11111222' 
LOOP,urn:ioos:station:wmo:lopl1:1,2013-11-02T10:01:00Z,28.8850,-90.0250,10.0,5.4,8.0,7.2,'11111222,11111222,11111222' 
LOOP,urn:ioos:station:wmo:lopl1:1,2013-11-02T10:16:00Z,28.8850,-90.0250,10.0,5.9,351.0,7.8,'11111222,11111222,11111222' 
LOOP,urn:ioos:station:wmo:lopl1:1,2013-11-02T10:31:00Z,28.8850,-90.0250,10.0,6.8,12.0,10.0,'11111222,11111222,11111222' 
LOOP,urn:ioos:station:wmo:lopl1:1,2013-11-02T10:46:00Z,28.8850,-90.0250,10.0,6.7,9.0,8.3,'11111222,11111222,11111222' 
LOOP,urn:ioos:station:wmo:lopl1:1,2013-11-02T11:01:00Z,28.8850,-90.0250,10.0,5.3,0.0,7.7,'11111222,11111222,11111222' 
LOOP,urn:ioos:station:wmo:lopl1:1,2013-11-02T11:16:00Z,28.8850,-90.0250,10.0,5.2,338.0,7.4,'11111222,11111222,11111222' 
LOOP,urn:ioos:station:wmo:lopl1:1,2013-11-02T11:31:00Z,28.8850,-90.0250,10.0,5.3,359.0,7.8,'11111222,11111222,11111222' 
LOOP,urn:ioos:station:wmo:lopl1:1,2013-11-02T11:46:00Z,28.8850,-90.0250,10.0,5.7,347.0,8.6,'11111222,11111222,11111222' 
LOOP,urn:ioos:station:wmo:lopl1:1,2013-11-02T12:01:00Z,28.8850,-90.0250,10.0,5.7,357.0,8.6,'11111222,11111222,11111222' 
LOOP,urn:ioos:station:wmo:lopl1:1,2013-11-02T12:16:00Z,28.8850,-90.0250,10.0,7.1,7.0,9.9,'11111222,11111222,11111222' 
LOOP,urn:ioos:station:wmo:lopl1:1,2013-11-02T12:31:00Z,28.8850,-90.0250,10.0,6.4,1.0,9.4,'11111222,11111222,11111222' 
LOOP,urn:ioos:station:wmo:lopl1:1,2013-11-02T12:46:00Z,28.8850,-90.0250,10.0,7.1,7.0,9.6,'11111222,11111222,11111222' 
LOOP,urn:ioos:station:wmo:lopl1:1,2013-11-02T13:01:00Z,28.8850,-90.0250,10.0,5.9,350.0,8.6,'11111222,11111222,11111222' 
LOOP,urn:ioos:station:wmo:lopl1:1,2013-11-02T13:16:00Z,28.8850,-90.0250,10.0,5.9,7.0,8.6,'11111222,11111222,11111222' 
LOOP,urn:ioos:station:wmo:lopl1:1,2013-11-02T13:31:00Z,28.8850,-90.0250,10.0,6.5,6.0,10.0,'11111222,11111222,11111222' 
LOOP,urn:ioos:station:wmo:lopl1:1,2013-11-02T13:46:00Z,28.8850,-90.0250,10.0,6.6,0.0,9.9,'11111222,11111222,11111222' 
LOOP,urn:ioos:station:wmo:lopl1:1,2013-11-02T14:01:00Z,28.8850,-90.0250,10.0,7.7,10.0,9.8,'11111222,11111222,11111222' 
LOOP,urn:ioos:station:wmo:lopl1:1,2013-11-02T14:16:00Z,28.8850,-90.0250,10.0,8.0,9.0,10.3,'11111222,11111222,11111222' 
LOOP,urn:ioos:station:wmo:lopl1:1,2013-11-02T14:31:00Z,28.8850,-90.0250,10.0,8.9,7.0,11.2,'11111222,11111222,11111222' 
LOOP,urn:ioos:station:wmo:lopl1:1,2013-11-02T14:46:00Z,28.8850,-90.0250,10.0,8.5,1.0,10.7,'11111222,11111222,11111222' 
LOOP,urn:ioos:station:wmo:lopl1:1,2013-11-02T15:01:00Z,28.8850,-90.0250,10.0,9.0,7.0,11.3,'11111222,11111222,11111222' 
LOOP,urn:ioos:station:wmo:lopl1:1,2013-11-02T15:16:00Z,28.8850,-90.0250,10.0,8.3,14.0,10.3,'11111222,11111222,11111222' 
LOOP,urn:ioos:station:wmo:lopl1:1,2013-11-02T15:31:00Z,28.8850,-90.0250,10.0,8.2,13.0,10.9,'11111222,11111222,11111222' 
LOOP,urn:ioos:station:wmo:lopl1:1,2013-11-02T15:46:00Z,28.8850,-90.0250,10.0,8.9,6.0,10.8,'11111222,11111222,11111222' 
LOOP,urn:ioos:station:wmo:lopl1:1,2013-11-02T16:01:00Z,28.8850,-90.0250,10.0,9.1,5.0,10.6,'11111222,11111222,11111222' 
LOOP,urn:ioos:station:wmo:lopl1:1,2013-11-02T16:16:00Z,28.8850,-90.0250,10.0,8.5,8.0,10.0,'11111222,11111222,11111222' 
LOOP,urn:ioos:station:wmo:lopl1:1,2013-11-02T16:31:00Z,28.8850,-90.0250,10.0,7.0,0.0,10.5,'11111222,11111222,11111222' 
LOOP,urn:ioos:station:wmo:lopl1:1,2013-11-02T16:46:00Z,28.8850,-90.0250,10.0,5.5,358.0,8.0,'11111222,11111222,11111222' 
LOOP,urn:ioos:station:wmo:lopl1:1,2013-11-02T17:01:00Z,28.8850,-90.0250,10.0,5.3,353.0,8.6,'11111222,11111222,11111222' 
LOOP,urn:ioos:station:wmo:lopl1:1,2013-11-02T17:16:00Z,28.8850,-90.0250,10.0,5.8,6.0,9.8,'11111222,11111222,11111222' 
LOOP,urn:ioos:station:wmo:lopl1:1,2013-11-02T17:31:00Z,28.8850,-90.0250,10.0,4.8,5.0,7.0,'11111222,11111222,11111222' 
LOOP,urn:ioos:station:wmo:lopl1:1,2013-11-02T17:46:00Z,28.8850,-90.0250,10.0,4.5,2.0,7.7,'11111222,11111222,11111222' 
LOOP,urn:ioos:station:wmo:lopl1:1,2013-11-02T18:01:00Z,28.8850,-90.0250,10.0,6.7,7.0,9.2,'11111222,11111222,11111222' 
LOOP,urn:ioos:station:wmo:lopl1:1,2013-11-02T18:16:00Z,28.8850,-90.0250,10.0,5.9,0.0,9.3,'11111222,11111222,11111222' 
LOOP,urn:ioos:station:wmo:lopl1:1,2013-11-02T18:31:00Z,28.8850,-90.0250,10.0,5.1,358.0,7.5,'11111222,11111222,11111222' 
LOOP,urn:ioos:station:wmo:lopl1:1,2013-11-02T18:46:00Z,28.8850,-90.0250,10.0,6.2,8.0,8.0,'11111222,11111222,11111222' 
LOOP,urn:ioos:station:wmo:lopl1:1,2013-11-02T19:01:00Z,28.8850,-90.0250,10.0,6.4,0.0,9.3,'11111222,11111222,11111222' 
LOOP,urn:ioos:station:wmo:lopl1:1,2013-11-02T19:16:00Z,28.8850,-90.0250,10.0,5.4,7.0,7.5,'11111222,11111222,11111222' 
LOOP,urn:ioos:station:wmo:lopl1:1,2013-11-02T19:32:00Z,28.8850,-90.0250,10.0,5.0,10.0,8.1,'11111222,11111222,11111222' 
LOOP,urn:ioos:station:wmo:lopl1:1,2013-11-02T19:47:00Z,28.8850,-90.0250,10.0,5.0,0.0,6.8,'11111222,11111222,11111222' 
LOOP,urn:ioos:station:wmo:lopl1:1,2013-11-02T20:02:00Z,28.8850,-90.0250,10.0,5.5,11.0,7.5,'11111222,11111222,11111222' 
LOOP,urn:ioos:station:wmo:lopl1:1,2013-11-02T20:17:00Z,28.8850,-90.0250,10.0,4.9,14.0,6.7,'11111222,11111222,11111222' 
LOOP,urn:ioos:station:wmo:lopl1:1,2013-11-02T20:32:00Z,28.8850,-90.0250,10.0,5.7,6.0,7.8,'11111222,11111222,11111222' 
LOOP,urn:ioos:station:wmo:lopl1:1,2013-11-02T20:47:00Z,28.8850,-90.0250,10.0,6.0,10.0,7.6,'11111222,11111222,11111222' 
LOOP,urn:ioos:station:wmo:lopl1:1,2013-11-02T21:02:00Z,28.8850,-90.0250,10.0,5.9,8.0,8.4,'11111222,11111222,11111222' 
LOOP,urn:ioos:station:wmo:lopl1:1,2013-11-02T21:17:00Z,28.8850,-90.0250,10.0,5.4,3.0,8.4,'11111222,11111222,11111222' 
LOOP,urn:ioos:station:wmo:lopl1:1,2013-11-02T21:32:00Z,28.8850,-90.0250,10.0,6.2,10.0,9.1,'11111222,11111222,11111222' 
LOOP,urn:ioos:station:wmo:lopl1:1,2013-11-02T21:47:00Z,28.8850,-90.0250,10.0,5.6,3.0,9.1,'11111222,11111222,11111222' 
LOOP,urn:ioos:station:wmo:lopl1:1,2013-11-02T22:07:00Z,28.8850,-90.0250,10.0,5.7,4.0,8.4,'11111222,11111222,11111222' 
LOOP,urn:ioos:station:wmo:lopl1:1,2013-11-02T22:22:00Z,28.8850,-90.0250,10.0,6.2,9.0,9.2,'11111222,11111222,11111222' 
LOOP,urn:ioos:station:wmo:lopl1:1,2013-11-02T22:37:00Z,28.8850,-90.0250,10.0,5.0,0.0,7.8,'11111222,11111222,11111222' 
LOOP,urn:ioos:station:wmo:lopl1:1,2013-11-02T22:52:00Z,28.8850,-90.0250,10.0,4.8,338.0,7.3,'11111222,11111222,11111222' 
LOOP,urn:ioos:station:wmo:lopl1:1,2013-11-02T23:07:00Z,28.8850,-90.0250,10.0,5.8,0.0,8.1,'11111222,11111222,11111222' 
LOOP,urn:ioos:station:wmo:lopl1:1,2013-11-02T23:22:00Z,28.8850,-90.0250,10.0,5.5,350.0,8.5,'11111222,11111222,11111222' 
LOOP,urn:ioos:station:wmo:lopl1:1,2013-11-02T23:37:00Z,28.8850,-90.0250,10.0,5.5,358.0,8.9,'11111222,11111222,11111222' 
LOOP,urn:ioos:station:wmo:lopl1:1,2013-11-02T23:52:00Z,28.8850,-90.0250,10.0,5.3,359.0,8.9,'11111222,11111222,11111222' 
LOOP,urn:ioos:station:wmo:lopl1:1,2013-11-03T00:07:00Z,28.8850,-90.0250,10.0,5.1,353.0,8.7,'11111222,11111222,11111222' 
LOOP,urn:ioos:station:wmo:lopl1:1,2013-11-03T00:22:00Z,28.8850,-90.0250,10.0,7.0,3.0,9.4,'11111222,11111222,11111222' 
LOOP,urn:ioos:station:wmo:lopl1:1,2013-11-03T00:37:00Z,28.8850,-90.0250,10.0,7.9,12.0,11.0,'11111222,11111222,11111222' 
LOOP,urn:ioos:station:wmo:lopl1:1,2013-11-03T00:52:00Z,28.8850,-90.0250,10.0,5.5,339.0,9.2,'11111222,11111222,11111222' 
LOOP,urn:ioos:station:wmo:lopl1:1,2013-11-03T01:07:00Z,28.8850,-90.0250,10.0,4.9,0.0,7.4,'11111222,11111222,11111222' 
LOOP,urn:ioos:station:wmo:lopl1:1,2013-11-03T01:22:00Z,28.8850,-90.0250,10.0,5.4,6.0,8.3,'11111222,11111222,11111222' 
LOOP,urn:ioos:station:wmo:lopl1:1,2013-11-03T01:37:00Z,28.8850,-90.0250,10.0,7.6,355.0,10.7,'11111222,11111222,11111222' 
LOOP,urn:ioos:station:wmo:lopl1:1,2013-11-03T01:52:00Z,28.8850,-90.0250,10.0,5.4,3.0,9.6,'11111222,11111222,11111222' 